STARLINK-4198, 52858

Orbit data source: Space-Track

STARLINK-4198, 52858 is a payload satellite owned by SpaceX/Seattle (US) in LEO that was launched on Fri, 17 Jun 2022 UTC via an FALCON 9 launch vehicle from the Air Force Eastern Test Range (AFETR). Payload-class satellites include a variety of spacecraft equipped with specific instruments for various scientific and technological missions. These include communications satellites like Starlink; space stations such as the ISS; scientific satellites like the Hubble; Earth observation satellites from companies like Planet Labs, Umbra, and HawkEye 360; GPS; miniature CubeSats for education and research; and military/defense satellites.

Loading next visibility...
Identifier
52858, 2022-062AE
Orbit
LEO
Country
Flag of USUS
Related business
Manufacturer
SpaceX/Seattle
Mission
Operational Commercial Communications
Bus & Motor
STARLINK, Unknown motor
Mass
297 kg wet, ~275 kg dry
Launch date (UTC)
2022-06-17 (3 years ago)
Launch vehicle
FALCON 9
Launch site
Air Force Eastern Test Range (AFETR)
Object type
Payload
Rocket body
Debris
Shape & HBR
Box + 1 Pan, 10.1 m
Radar Cross Section
13.562 m², Large (>1 m²)

Expand to show TLE details & history
Last TLE update: 17 hours ago

TLE from 17 hours ago
0 STARLINK-4198
1 52858U 22062AE  25349.36854403  .00001050  00000-0  84067-4 0  9991
2 52858  53.2180  42.6834 0001268  93.5587 266.5550 15.08831318193190
Epoch: 2025-12-15T08:50Z
TLE epoch observation values (Epoch: 2025-12-15T08:50:42.204Z)
Latitude
-0.00002°
Longitude
-174.26058°
Altitude
540.72 km
Speed
7.593 km/s
True Right ascension
02h 50m 44s
True Declination
0° 00' 00"
Sunlit
Object was in full shadow at epoch
Visualization orbit readout
Latitude
Unknown
Longitude
Unknown
Altitude
Unknown
Speed
Unknown
Apparent Right ascension
Unknown
Apparent Declination
Unknown
Sunlit
N/A
Visualization observer readout
Local Sidereal Time
00:24:34
Azimuth
Unknown
Elevation
Unknown
Doppler factor
Unknown
Orbital elements
Apogee altitude
540.892 km
Perigee altitude
539.138 km
Semi-major axis
6,918.152 km
Eccentricity
0.00013
Inclination
53.218°
RAAN
42.6834°
Arg. of periapsis
93.5587°
True anomaly
266.5405°
Mean anomaly
266.555°
Eccentric anomaly
266.54775°
Mean motion
3.77188 °/min
Orbital period
95.44 mins
BSTAR
0.000084067
Loading maneuver chart data...
Computing Atmospheric mass density...
Loading historical data...
Loading historical data...
Loading historical data...
Loading historical data...
Loading historical data...
Loading historical data...
Loading historical data...

Documentation

Showing up to 5 results
|